Clinton, IA

12:06 PM CDT on May 26, 2017 (GMT -0500)
Clinton Municipal

Weather History for KCWI - January, 2013

Change the Weather History Date:

Sunday, January 20, 2013

  Actual Average Record
Temperature  
Mean Temperature 14 °F -  
Max Temperature 19 °F 29 °F 49 °F (1967)
Min Temperature 8 °F 12 °F -25 °F (1985)
Degree Days  
Heating Degree Days 52    
Moisture  
Dew Point 3 °F    
Average Humidity 62    
Maximum Humidity 79    
Minimum Humidity 49    
Precipitation  
Precipitation 0.00 in - - ()
Sea Level Pressure  
Sea Level Pressure 30.30 in    
Wind  
Wind Speed 18 mph (NW)    
Max Wind Speed 30 mph    
Max Gust Speed 37 mph    
Visibility 10 miles    
Events      
Averages and records for this station are not official NWS values.
T = Trace of Precipitation, MM = Missing Value Source: NWS Daily Summary

Daily Weather History Graph

Daily Weather History Graph

Search for Another Location

Airport or City:

Trip Planner

Search our weather history database for the weather conditions in past years. The results will help you decide how hot, cold, wet, or windy it might be!

Date:

Astronomy

Jan. 20, 2013 Rise Set
Actual Time 7:23 AM CST 5:01 PM CST
Civil Twilight 6:53 AM CST 5:32 PM CST
Nautical Twilight 6:19 AM CST 6:06 PM CST
Astronomical Twilight 5:45 AM CST 6:39 PM CST
Moon 12:03 PM CST (1/20) 1:55 AM CST (1/20)
Length of Visible Light 10h 39m
Length of Day
9h 38m
Waxing Gibbous, 66% of the Moon is Illuminated
Jan 20
Waxing Gibbous
Jan 26
Full
Feb 3
Last Quarter
Feb 10
New
Feb 17
First Quarter

Hourly Weather History & Observations

Time (CST) Temp. Windchill Dew Point Humidity Pressure Visibility Wind Dir Wind Speed Gust Speed Precip Events Conditions
12:15 AM 19.4 °F 0.5 °F 6.8 °F 58% 30.12 in 10.0 mi NW 29.9 mph 36.8 mph N/A   Clear
12:35 AM 17.6 °F 0.1 °F 6.8 °F 63% 30.14 in 10.0 mi WNW 23.0 mph 31.1 mph N/A   Clear
12:55 AM 17.6 °F -1.3 °F 3.2 °F 53% 30.15 in 10.0 mi NW 27.6 mph 36.8 mph N/A   Clear
1:15 AM 15.8 °F -3.7 °F 3.2 °F 58% 30.16 in 10.0 mi WNW 27.6 mph 34.5 mph N/A   Clear
1:35 AM 15.8 °F -1.9 °F 5.0 °F 62% 30.18 in 10.0 mi WNW 21.9 mph - N/A   Clear
1:55 AM 15.8 °F -2.3 °F 3.2 °F 58% 30.19 in 10.0 mi WNW 23.0 mph 32.2 mph N/A   Clear
2:15 AM 14.0 °F -4.7 °F 3.2 °F 62% 30.22 in 10.0 mi NW 23.0 mph 31.1 mph N/A   Clear
2:35 AM 14.0 °F -3.0 °F 3.2 °F 62% 30.23 in 10.0 mi NW 18.4 mph 25.3 mph N/A   Clear
2:55 AM 12.2 °F -6.7 °F 3.2 °F 67% 30.24 in 10.0 mi NW 21.9 mph 27.6 mph N/A   Clear
3:15 AM 12.2 °F -6.3 °F 3.2 °F 67% 30.25 in 10.0 mi NW 20.7 mph 25.3 mph N/A   Clear
3:35 AM 12.2 °F -5.3 °F 3.2 °F 67% 30.26 in 10.0 mi NW 18.4 mph 23.0 mph N/A   Clear
3:55 AM 12.2 °F -5.8 °F 1.4 °F 62% 30.27 in 10.0 mi NW 19.6 mph 24.2 mph N/A   Clear
4:15 AM 10.4 °F -7.2 °F 3.2 °F 73% 30.26 in 10.0 mi WNW 17.3 mph 24.2 mph N/A   Clear
4:35 AM 10.4 °F -7.7 °F 1.4 °F 67% 30.27 in 10.0 mi NW 18.4 mph 25.3 mph N/A   Clear
4:55 AM 10.4 °F -6.6 °F 1.4 °F 67% 30.28 in 10.0 mi NW 16.1 mph - N/A   Clear
5:15 AM 10.4 °F -8.2 °F 1.4 °F 67% 30.29 in 10.0 mi NW 19.6 mph 24.2 mph N/A   Clear
5:35 AM 10.4 °F -6.6 °F 1.4 °F 67% 30.29 in 10.0 mi NW 16.1 mph 23.0 mph N/A   Clear
5:55 AM 10.4 °F -4.8 °F 1.4 °F 67% 30.30 in 10.0 mi NW 12.7 mph 20.7 mph N/A   Clear
6:15 AM 10.4 °F -6.6 °F -0.4 °F 62% 30.30 in 10.0 mi NW 16.1 mph - N/A   Clear
6:35 AM 8.6 °F -9.5 °F 1.4 °F 73% 30.32 in 10.0 mi NW 17.3 mph 23.0 mph N/A   Clear
6:55 AM 8.6 °F -8.3 °F -0.4 °F 67% 30.32 in 10.0 mi WNW 15.0 mph - N/A   Clear
7:15 AM 8.6 °F -9.5 °F 1.4 °F 73% 30.33 in 10.0 mi WNW 17.3 mph - N/A   Clear
7:35 AM 8.6 °F -6.3 °F -0.4 °F 67% 30.33 in 10.0 mi NW 11.5 mph - N/A   Clear
7:55 AM 8.6 °F -6.3 °F 1.4 °F 73% 30.33 in 10.0 mi NW 11.5 mph - N/A   Clear
8:15 AM 10.4 °F -5.4 °F 1.4 °F 67% 30.35 in 10.0 mi NW 13.8 mph - N/A   Clear
8:35 AM 10.4 °F -4.1 °F 1.4 °F 67% 30.34 in 10.0 mi NW 11.5 mph - N/A   Mostly Cloudy
8:55 AM 10.4 °F -3.3 °F 1.4 °F 67% 30.34 in 10.0 mi NW 10.4 mph - N/A   Overcast
9:15 AM 10.4 °F -1.5 °F 1.4 °F 67% 30.35 in 10.0 mi NW 8.1 mph - N/A   Scattered Clouds
9:35 AM 12.2 °F 1.7 °F 1.4 °F 62% 30.36 in 10.0 mi NW 6.9 mph - N/A   Clear
9:55 AM 12.2 °F -1.0 °F 1.4 °F 62% 30.37 in 10.0 mi NW 10.4 mph - N/A   Clear
10:15 AM 14.0 °F 0.5 °F 1.4 °F 57% 30.38 in 10.0 mi NNW 11.5 mph - N/A   Clear
10:35 AM 15.8 °F 2.7 °F 1.4 °F 53% 30.37 in 10.0 mi NW 11.5 mph - N/A   Clear
10:55 AM 14.0 °F 0.5 °F 1.4 °F 57% 30.37 in 10.0 mi NW 11.5 mph - N/A   Scattered Clouds
11:15 AM 15.8 °F 2.7 °F 3.2 °F 58% 30.36 in 10.0 mi NW 11.5 mph - N/A   Mostly Cloudy
11:35 AM 15.8 °F 2.7 °F 1.4 °F 53% 30.36 in 10.0 mi NW 11.5 mph - N/A   Mostly Cloudy
11:55 AM 15.8 °F 2.1 °F 1.4 °F 53% 30.36 in 10.0 mi NW 12.7 mph 17.3 mph N/A   Scattered Clouds
12:15 PM 15.8 °F 2.7 °F 1.4 °F 53% 30.34 in 10.0 mi NW 11.5 mph - N/A   Mostly Cloudy
12:35 PM 15.8 °F 2.1 °F 1.4 °F 53% 30.33 in 10.0 mi NW 12.7 mph - N/A   Scattered Clouds
12:55 PM 15.8 °F 3.4 °F 1.4 °F 53% 30.33 in 10.0 mi WNW 10.4 mph - N/A   Scattered Clouds
1:15 PM 17.6 °F 4.3 °F 1.4 °F 49% 30.33 in 10.0 mi WNW 12.7 mph - N/A   Mostly Cloudy
1:35 PM 17.6 °F 5.7 °F 3.2 °F 53% 30.32 in 10.0 mi NW 10.4 mph - N/A   Overcast
1:55 PM 17.6 °F 4.3 °F 1.4 °F 49% 30.32 in 10.0 mi NW 12.7 mph 19.6 mph N/A   Mostly Cloudy
2:15 PM 19.4 °F 5.5 °F 3.2 °F 49% 30.32 in 10.0 mi NW 15.0 mph - N/A   Clear
2:35 PM 17.6 °F 2.2 °F 3.2 °F 53% 30.32 in 10.0 mi NW 17.3 mph - N/A   Clear
2:55 PM 17.6 °F 3.2 °F 3.2 °F 53% 30.31 in 10.0 mi WNW 15.0 mph 19.6 mph N/A   Clear
3:15 PM 17.6 °F 3.7 °F 3.2 °F 53% 30.31 in 10.0 mi NW 13.8 mph - N/A   Clear
3:35 PM 17.6 °F 2.7 °F 3.2 °F 53% 30.32 in 10.0 mi WNW 16.1 mph - N/A   Clear
3:55 PM 15.8 °F 0.3 °F 3.2 °F 58% 30.32 in 10.0 mi WNW 16.1 mph - N/A   Clear
4:15 PM 15.8 °F 0.3 °F 3.2 °F 58% 30.32 in 10.0 mi WNW 16.1 mph 21.9 mph N/A   Clear
4:35 PM 15.8 °F 0.3 °F 3.2 °F 58% 30.32 in 10.0 mi WNW 16.1 mph - N/A   Clear
4:55 PM 15.8 °F 0.9 °F 3.2 °F 58% 30.31 in 10.0 mi WNW 15.0 mph - N/A   Mostly Cloudy
5:15 PM 15.8 °F 0.9 °F 3.2 °F 58% 30.31 in 10.0 mi WNW 15.0 mph - N/A   Overcast
5:35 PM 15.8 °F 0.3 °F 3.2 °F 58% 30.31 in 10.0 mi WNW 16.1 mph - N/A   Overcast
5:55 PM 15.8 °F 0.9 °F 3.2 °F 58% 30.31 in 10.0 mi WNW 15.0 mph - N/A   Overcast
6:15 PM 15.8 °F 0.3 °F 3.2 °F 58% 30.31 in 10.0 mi WNW 16.1 mph - N/A   Overcast
6:35 PM 15.8 °F -0.2 °F 3.2 °F 58% 30.31 in 10.0 mi WNW 17.3 mph - N/A   Mostly Cloudy
6:55 PM 14.0 °F -2.0 °F 3.2 °F 62% 30.31 in 10.0 mi WNW 16.1 mph - N/A   Scattered Clouds
7:15 PM 14.0 °F -1.4 °F 3.2 °F 62% 30.31 in 10.0 mi WNW 15.0 mph - N/A   Partly Cloudy
7:35 PM 14.0 °F -0.2 °F 3.2 °F 62% 30.30 in 10.0 mi WNW 12.7 mph - N/A   Partly Cloudy
7:55 PM 14.0 °F -1.4 °F 5.0 °F 67% 30.30 in 10.0 mi WNW 15.0 mph - N/A   Clear
8:15 PM 14.0 °F -0.8 °F 5.0 °F 67% 30.30 in 10.0 mi NW 13.8 mph - N/A   Partly Cloudy
8:35 PM 14.0 °F -1.4 °F 3.2 °F 62% 30.30 in 10.0 mi NW 15.0 mph - N/A   Partly Cloudy
8:55 PM 12.2 °F -4.3 °F 5.0 °F 73% 30.30 in 10.0 mi WNW 16.1 mph - N/A   Clear
9:15 PM 12.2 °F -3.7 °F 3.2 °F 67% 30.29 in 10.0 mi WNW 15.0 mph - N/A   Clear
9:35 PM 12.2 °F -3.1 °F 3.2 °F 67% 30.29 in 10.0 mi WNW 13.8 mph - N/A   Clear
9:55 PM 12.2 °F -2.5 °F 3.2 °F 67% 30.29 in 10.0 mi WNW 12.7 mph - N/A   Clear
10:15 PM 10.4 °F -4.8 °F 5.0 °F 79% 30.28 in 10.0 mi WNW 12.7 mph - N/A   Clear
10:35 PM 10.4 °F -6.6 °F 3.2 °F 73% 30.28 in 10.0 mi WNW 16.1 mph - N/A   Clear
10:55 PM 10.4 °F -6.0 °F 3.2 °F 73% 30.28 in 10.0 mi WNW 15.0 mph - N/A   Clear
11:15 PM 10.4 °F -6.0 °F 3.2 °F 73% 30.28 in 10.0 mi WNW 15.0 mph - N/A   Mostly Cloudy
11:35 PM 12.2 °F -3.1 °F 3.2 °F 67% 30.27 in 10.0 mi WNW 13.8 mph 21.9 mph N/A   Overcast
11:55 PM 12.2 °F -5.8 °F 3.2 °F 67% 30.27 in 10.0 mi WNW 19.6 mph 24.2 mph N/A   Overcast